カタログに戻る

FENGYUN 1C DEB

運用中PO
NORAD 32222·DEBRIS·🇨🇳 China

打ち上げ May 10, 1999 から Taiyuan Satellite Launch Center

Loading…

次のパス (今後24時間)

TLE

古いSource: Space-Track

元期: Aug 23, 2026, 04:34 UTC

1 32222U 99025CVU 26235.19078245  .00018352  00000-0  24473-2 0  9991
2 32222  99.0971 218.3990 0037239 156.4195 203.8730 14.79187835682849

AllMySatでFENGYUN 1C DEBをリアルタイム追跡

Download on the App Store